KUIPER-00115

导读

KUIPER-00115是一颗由美国发射的卫星,于2025年8月11日成功进入太空。该卫星属于亚马逊柯伊伯项目,项目旨在构建近地轨道卫星星座,实现全球高速互联网覆盖,KUIPER-00115将助力项目验证卫星通信技术,推进全球网络覆盖布局,弥补偏远地区网络覆盖缺口。

基本信息
目录编号:
65152
目录名称:
KUIPER-00115
国际标识:
2025-171W
轨道中心:
EARTH
卫星名称:
KUIPER-00115
卫星全名:
KUIPER-00115
卫星状态:
在轨 (已飞行397 天)
发射日期:
2025-08-11 UTC
国别 :
美国 (US)
星等 :
--
该卫星已列入 空间交会检测服务 Space Conjunction Data Service (SCDS) ,当前飞行风险评估等级: 无高风险
轨道信息
数据来源 国际轨道数据
星历时间: 2026-09-12T02:41:33+0800
8小时前
查看轨道信息
半长轴: 7007.757km
偏心率: 0.0000853
轨道倾角: 51.901°
近地点辐角 109.983°
升交点赤经 65.212°
平近点角 250.122°
近地点: 629.022km
远地点: 630.218km
周期: 97.303分钟
每日圈数: 14.799064
详细信息
使用方式:
暂无
2D轨道图
3D轨道图
轨道高度分析图
轨道倾角分析图
轨道综合分析图
查看轨道综合分析图
与全量物体交会距离演化趋势
与全量物体交会风险概率演化趋势